www.pogodaiklimat.ru

Погода и климат >> Архив погоды >> Россия >> Волгоградская область >> Иловля


ПОГОДА в Иловле

  • Прогноз погоды в Иловле
  • Монитор погоды в Иловле

АРХИВ ПОГОДЫ в Иловле

Время (UTC), дата Ветер
(напр.,м/с)
 
Видим.   Явления Облачность Т
(С)
Тd
(С)
f
(%)
Тe
(С)
Тes
(С)
Комфортность P
(гПа)
Po
(гПа)
Тmin
(С)
Tmax
(С)
R
(мм)
R24
(мм)
S
(см)
12 18.05 СВ 2 10 км ясно +23.8 +2.4 25 +23 +34 комфорт 1014.5 1009.3
15 18.05 СЗ 1 10 км ясно +24.1 +2.8 25 +23 +25 комфорт 1013.4 1008.2 +24.7
18 18.05 Ю 1 10 км ясно +17.0 +6.8 51 +18 +18 1013.4 1008.1
21 18.05 штиль 0 10 км ясно +12.2 +7.9 75 +12 +12 1013.7 1008.3
00 19.05 штиль 0 10 км ясно +9.5 +6.8 83 +9 +9 1013.4 1008.0
03 19.05 штиль 0 10 км ясно +12.8 +6.9 67 +12 +14 1013.4 1008.0 +8.5
06 19.05 С 1 10 км ясно +22.0 +4.4 32 +22 +35 комфорт 1013.6 1008.4
09 19.05 С 3 10 км 3/3 1000 м
[Cu hum]
+25.3 +2.7 23 +24 +34 комфорт 1012.5 1007.4
12 19.05 С 4 10 км 1/1 1000 м
[Cu hum]
+25.9 +2.0 21 +24 +31 комфорт 1012.1 1007.0
15 19.05 СЗ 2 10 км ясно +24.5 -1.1 18 +23 +25 комфорт 1012.6 1007.4 +26.4
18 19.05 СЗ 1 10 км ясно +18.0 +0.9 32 +19 +19 1014.2 1008.9
21 19.05 СВ 2 10 км ясно +14.9 +3.1 45 +15 +15 1015.1 1009.7
00 20.05 СВ 2 10 км ясно +10.8 +2.8 58 +10 +10 1016.8 1011.4
03 20.05 СВ 1 10 км ясно +11.0 +2.4 55 +11 +13 1018.9 1013.4 +9.1
06 20.05 Ю 1 10 км ясно +18.0 -0.1 29 +19 +32 опасность
простуды
1019.5 1014.2
09 20.05 СВ 2 10 км 4/3 1000 м
[Cu hum Ci fib]
+20.4 -0.5 25 +21 +33 комфорт 1019.7 1014.5
12 20.05 С 4 10 км 4/1 1000 м
[Cu hum Ci fib]
+22.4 -1.7 20 +21 +28 комфорт 1018.7 1013.5
15 20.05 С 2 10 км 8/0
[Cs]
+21.9 -1.2 21 +21 +23 комфорт 1018.3 1013.1 +23.1
18 20.05 С 1 10 км 3/0
[Ci fib]
+15.5 +3.5 45 +16 +16 1019.4 1014.0
21 20.05 СВ 1 10 км 4/0
[Ci fib]
+11.3 +2.4 54 +11 +11 1020.8 1015.4
00 21.05 штиль 0 10 км 3/0
[Ci fib]
+8.5 +2.8 67 +8 +8 1021.3 1015.8
03 21.05 СВ 1 10 км 3/0
[Ci fib]
+9.8 +2.6 61 +10 +11 1022.6 1017.1 +6.7
06 21.05 ЮВ 3 10 км 3/0
[Ci fib]
+18.5 +0.7 30 +19 +27 1022.9 1017.6
09 21.05 ЮВ 2 10 км 4/0
[Ci fib]
+21.6 -1.6 21 +21 +37 комфорт 1022.4 1017.2
12 21.05 СЗ 2 10 км 5/0
[Ci fib]
+23.1 -1.3 20 +22 +32 комфорт 1021.3 1016.0
15 21.05 штиль 0 10 км 3/0
[Ci fib]
+23.5 -2.3 18 +22 +24 комфорт 1019.9 1014.7 +23.9
18 21.05 В 1 10 км 8/0
[Cs]
+15.3 +3.4 45 +16 +16 1020.6 1015.3
21 21.05 ЮВ 1 10 км 4/0
[Ci fib]
+12.4 +3.1 53 +13 +13 1020.7 1015.3
00 22.05 ЮВ 1 10 км 3/0
[Ci fib]
+10.9 +2.5 56 +11 +11 1020.0 1014.6
03 22.05 ЮВ 2 10 км 8/0
[Cs]
+12.9 +2.4 49 +12 +14 1019.8 1014.4 +9.9
06 22.05 Ю 4 10 км 6/0
[Ac trans Ci fib]
+20.5 +3.5 33 +21 +26 комфорт 1019.1 1013.8
09 22.05 Ю 4 10 км 10/3 600 м
[Sc Ac und]
+21.6 +0.6 25 +21 +24 комфорт 1017.7 1012.5
12 22.05 Ю 4 10 км 10/0
[Ac trans Cs]
+23.0 +1.3 24 +22 +27 комфорт 1016.1 1011.0
15 22.05 ЮВ 3 10 км 9/0
[Ac trans Cs]
+21.8 -0.2 23 +21 +22 комфорт 1014.6 1009.4 +23.7
18 22.05 В 2 10 км 8/3 600 м
[Sc Ac trans Ci fib]
+17.6 +2.0 35 +18 +18 1013.8 1008.5
21 22.05 ЮВ 2 10 км 10/0
[Ac trans Cs]
+16.1 +3.7 44 +16 +16 1012.4 1007.1
00 23.05 Ю 3 10 км 10/0
[Ac und Cs]
+16.1 +5.0 48 +16 +16 1011.4 1006.1
03 23.05 ЮВ 1 10 км в посл. час ливневой дождь 10/5 600 м
[Sc Ac trans Ci fib]
+14.8 +10.4 75 +15 +16 1010.7 1005.4 +14.2 0.3
06 23.05 Ю 4 10 км {ливн. осадки} 10/8 600 м
[Cb calv Cs]
+20.3 +12.0 59 +22 +23 комфорт 1009.4 1004.2
09 23.05 Ю 4
{10}
10 км гроза без осадков {ливн. осадки} 10/8 300 м
[Cb cap Ac trans Ci sp]
+21.3 +13.3 60 +24 +25 комфорт 1008.1 1002.9
12 23.05 В 1 10 км в посл. час гроза {ливн. осадки} 8/5 300 м
[Cb calv Ac trans Ci fib]
+22.0 +9.9 46 +24 +28 комфорт 1007.0 1001.8
15 23.05 Ю 2
{11}
10 км гроза, ливневой дождь 10/8 300 м
[Cb cap Ac und]
+15.0 +12.5 85 +15 +15 1007.3 1002.0 +23.4 3
18 23.05 Ю 1 10 км {гроза, ливн. осадки} 10/8 300 м
[Cb calv Ac und]
+15.7 +13.2 85 +16 +16 1007.1 1001.8
21 23.05 ЮЗ 1 10 км ясно +13.3 +11.5 89 +13 +13 1006.9 1001.6
00 24.05 Ю 1 10 км в посл. час ливневой дождь 9/6 300 м
[Cb calv Ac und]
+14.3 +12.4 88 +15 +15 1005.8 1000.5
03 24.05 З 2 10 км 8/3 600 м
[Sc Ac trans]
+15.9 +12.3 79 +16 +16 1006.3 1001.1 +13.3 0.3
06 24.05 З 2 10 км 3/0
[Ci fib]
+21.2 +12.7 58 +23 +34 комфорт 1006.9 1001.8
09 24.05 СЗ 2 10 км 4/3 1000 м
[Cu hum Ci fib]
+26.1 +11.0 39 +27 +39 жарко 1007.0 1001.9
12 24.05 З 1 10 км 5/5 1000 м
[Cu med, cong]
+28.1 +9.2 31 +28 +35 жарко 1006.9 1001.8
15 24.05 С 1 10 км {ливн. осадки} 8/3 600 м
[Sc diur, vesp Ac trans]
+23.3 +12.2 50 +26 +27 жарко 1008.3 1003.1 +28.3
18 24.05 СВ 1 10 км {ливн. осадки} 8/3 600 м
[Sc Ac trans]
+19.6 +13.6 68 +22 +22 комфорт 1009.7 1004.5
21 24.05 В 3 10 км ясно +16.9 +12.8 77 +17 +17 1012.0 1006.7
00 25.05 В 4 10 км 10/8 300 м
[Sc Ac und]
+15.2 +8.6 65 +14 +14 1012.9 1007.6
03 25.05 В 4 10 км 9/8 600 м
[Sc Ac trans]
+13.2 +2.3 48 +12 +12 1014.4 1009.1 +13.2
06 25.05 В 5-10
{10}
10 км 10/3 600 м
[Sc Ac trans Cs]
+16.3 +7.9 57 +15 +17 1014.3 1009.0 +13.2
09 25.05 В 5
{12}
10 км 10/3 1000 м
[Cu hum Ac trans Cs]
+20.8 +8.2 44 +22 +25 комфорт 1013.2 1008.0

 

Местоположение метеостанции Иловля (Волгоградская область, Россия): широта 49.30 долгота 44.00 высота над уровнем моря 44 м.

В архиве по умолчанию представлена погода в Иловле за последнюю неделю. Архивные данные за месяц целиком и за предыдущие месяцы, начиная с января 2011 года, Вы можете получить, выбрав интересующий диапазон дат из раскрывающегося списка и нажав кнопку "Ввод!".


*Определитесь, кто Вы:
робот инопланетянин человек

Внимание! Время в таблицах - всемирное. Для получения местного времени необходимо прибавить поправку, которая равна 3 ч.

Смотрите также архив погоды в соседних городах и на ближайших метеорологических станциях:

Погода в Фролове (Волгоградская область, Россия) (60 км)
Погода в Волгограде (Волгоградская область, Россия) (64 км)
Погода в Ольховке (Волгоградская область, Россия) (75 км)
Погода в Волгограде город (Волгоградская область, Россия) (77 км)
Погода в Калаче-на-Дону (Волгоградская область, Россия) (79 км)
Погода в Серафимовиче (Волгоградская область, Россия) (97 км)
Погода в Михайловке (Волгоградская область, Россия) (101 км)
Погода в Даниловке (Волгоградская область, Россия) (119 км)
Погода в Нижнем Чире (Волгоградская область, Россия) (126 км)
Погода в Камышине (Волгоградская область, Россия) (131 км)

Пояснения к столбцам:

Ветер - указаны скорость ветра в м/с - средняя за 10 мин, порывы в срок и между сроками (в фигурных скобках) и направление, откуда дует ветер: С - северный, СВ - северо-восточный, В - восточный, ЮВ - юго-восточный, Ю - южный, ЮЗ - юго-западный, З - западный, СЗ - северо-западный.
Видимость - горизонтальная дальность видимости в метрах или километрах. При видимости от 1 до 10 км при отсутствии осадков обычно наблюдается дымка, при ухудшении видимости до 1 км и менее - туман. В сухую погоду видимость может ухудшаться дымом, пылью или мглою.
Явления - указаны атмосферные явления, наблюдавшиеся в срок или в последний час перед сроком; фигурными скобками обозначены явления, наблюдавшиеся между сроками (за 1-3 часа до срока); квадратными скобками обозначены град или гололедные отложения с указанием их диаметра в мм.
Облачность - указаны через наклонную черту общая и нижняя облачность в баллах и высота нижней границы облаков в метрах; квадратными скобками обозначены формы облаков: Ci - перистые, Cs - перисто-слоистые, Cc - перисто-кучевые, Ac - высококучевые, As - высокослоистые, Sc - слоисто-кучевые, Ns - слоисто-дождевые, Cu - кучевые, Cb - кучево-дождевые. Подробнее классификацию облаков см. в Атласе облаков (PDF).
T - Температура воздуха - температура, измеренная на высоте 2 м над землей.
Td - Температура точки росы - температура, при понижении до которой содержащийся в воздухе водяной пар достигнет насыщения.
f - Относительная влажность воздуха - влажноcть воздуха, измеренная на высоте 2 м над землей.
Te - Эффективная температура - температура, которую ощущает одетый по сезону человек в тени. Характеристика душности погоды. При расчете учитывается влияние влажности воздуха и скорости ветра на теплоощущения человека.
Tes - Эффективная температура на солнце - температура, которую ощущает человек, с поправкой на солнечный нагрев. Характеристика знойности погоды. Зависит от высоты солнца над горизонтом, облачности и скорости ветра. Ночью, в пасмурную погоду, а также при ветре 12 м/с и более поправка равна нулю.
P - Атмосферное давление - приведенное к уровню моря атмосферное давление.
Po - Атмосферное давление - измеренное на уровне метеостанции атмосферное давление.
Tmin - Минимальная температура - минимум температуры воздуха на высоте 2 м над землей.
Tmax - Максимальная температура - максимум температуры воздуха на высоте 2 м над землей.
R - Количество осадков - Количество выпавших осадков за период времени, мм. При наведении курсора мыши на число - период времени, за который выпало указанное количество осадков.
R24 - Количество осадков - Количество выпавших осадков за 24 часа, мм.
S - Снежный покров - Высота снежного покрова, см. При наведении курсора мыши на число - состояние снежного покрова и степень покрытия местности в баллах.